Grand Junction, CO

6:02 AM MDT on April 26, 2017 (GMT -0600)
Walker

Weather History for KGJT - September, 2014

Change the Weather History Date:

Friday, September 12, 2014

  Actual Average Record
Temperature  
Mean Temperature 60 °F 68 °F  
Max Temperature 76 °F 82 °F 96 °F (1990)
Min Temperature 44 °F 54 °F 36 °F (1903)
Degree Days  
Heating Degree Days 5 1  
Month to date heating degree days 10 8  
Since 1 July heating degree days 15 11  
Cooling Degree Days 0 4  
Month to date cooling degree days 45 66  
Year to date cooling degree days 971 1085  
Growing Degree Days 10 (Base 50)    
Moisture  
Dew Point 35 °F    
Average Humidity 42    
Maximum Humidity 60    
Minimum Humidity 23    
Precipitation  
Precipitation 0.00 in 0.04 in 0.81 in (1927)
Month to date precipitation 0.42 0.45  
Year to date precipitation 8.51 6.30  
Snow  
Snow 0.00 in 0.00 in 0.00 in (2015)
Month to date snowfall 0.0 0.0  
Since 1 July snowfall 0.0 0.0  
Since 1 September snowfall 0.0 0.0  
Snow Depth 0.00 in    
Sea Level Pressure  
Sea Level Pressure 30.07 in    
Wind  
Wind Speed 4 mph (ENE)    
Max Wind Speed 24 mph    
Max Gust Speed 32 mph    
Visibility 10 miles    
Events      
T = Trace of Precipitation, MM = Missing Value Source: NWS Daily Summary

Daily Weather History Graph

Daily Weather History Graph

Search for Another Location

Airport or City:

Trip Planner

Search our weather history database for the weather conditions in past years. The results will help you decide how hot, cold, wet, or windy it might be!

Date:

Astronomy

Sep. 12, 2014 Rise Set
Actual Time 6:52 AM MDT 7:27 PM MDT
Civil Twilight 6:25 AM MDT 7:54 PM MDT
Nautical Twilight 5:54 AM MDT 8:25 PM MDT
Astronomical Twilight 5:21 AM MDT 8:58 PM MDT
Moon 9:52 PM MDT (9/12) 10:57 AM MDT (9/12)
Length of Visible Light 13h 28m
Length of Day
12h 34m
Waning Gibbous, 82% of the Moon is Illuminated
Sep 12
Waning Gibbous
Sep 15
Last Quarter
Sep 24
New
Oct 1
First Quarter
Oct 8
Full

Hourly Weather History & Observations

Time (MDT) Temp. Dew Point Humidity Pressure Visibility Wind Dir Wind Speed Gust Speed Precip Events Conditions
12:53 AM 57.9 °F 32.0 °F 37% 30.00 in 10.0 mi ENE 18.4 mph - N/A   Clear
1:53 AM 55.9 °F 30.0 °F 37% 30.03 in 10.0 mi East 12.7 mph 21.9 mph N/A   Clear
2:53 AM 53.6 °F 33.8 °F 47% 30.21 in 10.0 mi Variable 4.6 mph - N/A   Clear
3:53 AM 51.1 °F 32.0 °F 48% 30.07 in 10.0 mi Calm Calm - N/A   Clear
4:53 AM 51.1 °F 30.9 °F 46% 30.08 in 10.0 mi NE 4.6 mph - N/A   Clear
5:53 AM 46.9 °F 33.1 °F 59% 30.10 in 10.0 mi Calm Calm - N/A   Clear
6:53 AM 46.0 °F 34.0 °F 63% 30.13 in 10.0 mi Calm Calm - N/A   Clear
7:53 AM 50.0 °F 35.1 °F 57% 30.14 in 10.0 mi Calm Calm - N/A   Clear
8:53 AM 53.1 °F 33.1 °F 47% 30.17 in 10.0 mi Calm Calm - N/A   Clear
9:53 AM 57.0 °F 34.0 °F 42% 30.16 in 10.0 mi SSW 4.6 mph - N/A   Clear
10:53 AM 61.0 °F 34.0 °F 36% 30.15 in 10.0 mi Calm Calm - N/A   Clear
11:53 AM 64.0 °F 32.0 °F 30% 30.13 in 10.0 mi Calm Calm - N/A   Clear
12:53 PM 68.0 °F 33.1 °F 27% 30.09 in 10.0 mi Variable 3.5 mph - N/A   Clear
1:53 PM 70.0 °F 35.1 °F 28% 30.06 in 10.0 mi WSW 6.9 mph - N/A   Clear
2:53 PM 73.0 °F 36.0 °F 26% 30.03 in 10.0 mi Variable 3.5 mph - N/A   Clear
3:53 PM 73.9 °F 35.1 °F 24% 30.01 in 10.0 mi Variable 4.6 mph - N/A   Clear
4:53 PM 75.0 °F 35.1 °F 23% 29.99 in 10.0 mi WNW 8.1 mph - N/A   Clear
5:53 PM 73.9 °F 35.1 °F 24% 30.00 in 10.0 mi WNW 6.9 mph - N/A   Clear
6:53 PM 71.1 °F 37.9 °F 30% 30.00 in 10.0 mi WNW 3.5 mph - N/A   Clear
7:53 PM 61.0 °F 44.1 °F 54% 30.01 in 10.0 mi Calm Calm - N/A   Clear
8:53 PM 60.8 °F 39.2 °F 45% 30.13 in 10.0 mi East 3.5 mph - N/A   Clear
9:53 PM 60.1 °F 37.9 °F 44% 30.01 in 10.0 mi East 4.6 mph - N/A   Clear
10:53 PM 61.0 °F 36.0 °F 39% 30.00 in 10.0 mi NE 11.5 mph - N/A   Clear
11:53 PM 55.0 °F 37.9 °F 53% 30.01 in 10.0 mi SSE 4.6 mph - N/A   Clear